Content
SEND FEEDBACK

Daily
Averages
Monthly
Summary
Greece

THESSALONIKI, GREECE


Home > Europe > Greece
Elevation: 13 feet     Latitude: 40 13N     Longitude: 022 58E

WEATHER
 
SELECT A DAY
Number of Records: 101,386;   Date Range: 7/3/96 - 11/19/14
 
SHARE

PRINT THIS DATA

[ ← Previous Day ]
WEATHER ALMANAC - MARCH 31, 2013
[ Next Day → ]
[ °C ]   °F
Weather ElementAverageHighLow
Temperature53.5 °F62.6 °F (5:50 pm)48.2 °F (5:50 am)
Dewpoint50.7 °F55.4 °F (3:50 pm)46.4 °F (5:50 am)
Humidity90.3 %94 % (1:20 am)72 % (5:50 pm)
Barometer29.72 in29.80 in (12:50 am)29.68 in (3:50 pm)
Wind Speed3.4 mph12.7 mph (3:50 pm)
Weather ElementAverage
Visibility2.6 mi
Wind DirectionE (91.6 °)

Weather ElementTotal
Precipitation---
Heating Degree Days9.6 (Base 65)
Growing Degree Days5.4 (Base 50)
Averaged from 50 records on March 31, 2013
WEATHER CONDITIONS BREAKOUT
WIND DIRECTION BREAKOUT
WEATHER BY HOUR - MARCH 31, 2013
[ °C ]   °F
Local TimeTemperatureDewpointHumidityBarometerVisibilityWind DirectionWind SpeedGust SpeedPrecipitationEventsConditions
12:20 AM50.0 °F48.2 °F94 %29.71 in0.2 miVariable3.5 mphFogFog
12:50 AM53.6 °F50.0 °F88 %29.80 in4.3 miVariable2.3 mphOvercast
12:50 AM51.8 °F50.0 °F94 %29.71 in0.1 miCalmFogFog
1:20 AM51.8 °F50.0 °F94 %29.80 in3.7 miCalmOvercast
1:50 AM51.8 °F48.2 °F88 %29.80 in3.7 miVariable2.3 mphOvercast
2:00 AM51.0 °F48.0 °F87 %29.80 in4.0 mi°2.3 mphMist
2:20 AM50.0 °F48.2 °F94 %29.77 in3.1 miESE (120°)5.8 mphOvercast
2:50 AM50.0 °F48.2 °F94 %29.77 in3.1 miESE (120°)5.8 mphOvercast
4:20 AM50.0 °F48.2 °F94 %29.77 in3.1 miESE (110°)5.8 mphOvercast
4:50 AM50.0 °F48.2 °F94 %29.74 in3.1 miESE (120°)5.8 mphOvercast
5:20 AM50.0 °F48.2 °F94 %29.74 in3.1 miVariable3.5 mphOvercast
5:50 AM48.2 °F46.4 °F93 %29.74 in0.2 miVariable3.5 mphFogFog
6:20 AM48.2 °F46.4 °F93 %29.74 in0.2 miCalmFogFog
6:50 AM50.0 °F48.2 °F94 %29.74 in0.2 miCalmFogFog
7:20 AM48.2 °F46.4 °F93 %29.74 in0.1 miCalmFogFog
7:50 AM48.2 °F46.4 °F93 %29.71 in0.1 miCalmFogFog
8:20 AM48.2 °F46.4 °F93 %29.71 in0.1 miCalmFogFog
8:50 AM50.0 °F48.2 °F94 %29.71 in0.1 miESE (110°)4.6 mphFogFog
9:00 AM50.0 °F48.0 °F89 %29.73 in0.0 miESE (110°)4.6 mphFogHeavy Fog
9:20 AM50.0 °F48.2 °F94 %29.71 in0.1 miESE (110°)4.6 mphFogFog
9:50 AM50.0 °F48.2 °F94 %29.71 in0.3 miCalmFogFog
10:20 AM51.8 °F50.0 °F94 %29.71 in0.4 miCalmFogFog
10:50 AM51.8 °F50.0 °F94 %29.74 in1.0 miCalmOvercast
11:20 AM53.6 °F51.8 °F94 %29.74 in1.2 miVariable3.5 mphMostly Cloudy
11:50 AM53.6 °F51.8 °F94 %29.71 in1.6 miCalmMostly Cloudy
12:20 PM55.4 °F53.6 °F94 %29.71 in1.6 miVariable3.5 mphOvercast
12:50 PM55.4 °F53.6 °F94 %29.71 in1.6 miCalmOvercast
1:20 PM55.4 °F53.6 °F94 %29.71 in1.6 miCalmOvercast
1:50 PM55.4 °F53.6 °F94 %29.71 in1.6 miWest (270°)5.8 mphOvercast
2:20 PM55.4 °F53.6 °F94 %29.71 in1.6 miWest (270°)3.5 mphRainLight Rain
2:50 PM55.4 °F51.8 °F88 %29.74 in1.6 miWNW (290°)6.9 mphRainLight Rain
3:00 PM56.0 °F53.0 °F84 %29.77 in2.0 miWNW (290°)6.9 mphRainLight Rain
3:50 PM57.2 °F55.4 °F94 %29.68 in3.1 miESE (110°)12.7 mphOvercast
4:20 PM57.2 °F53.6 °F88 %29.71 in3.7 miSouth (180°)5.8 mphOvercast
4:50 PM59.0 °F53.6 °F82 %29.68 in4.3 miESE (110°)9.2 mphMostly Cloudy
5:20 PM60.8 °F55.4 °F82 %29.68 in6.2 miESE (110°)8.1 mphMostly Cloudy
5:50 PM62.6 °F53.6 °F72 %29.68 in6.2 miESE (120°)9.2 mphOvercast
6:20 PM62.6 °F53.6 °F72 %29.68 in6.2 miSE (140°)4.6 mphMostly Cloudy
6:50 PM62.6 °F55.4 °F77 %29.68 in6.2 miSouth (180°)3.5 mphMostly Cloudy
7:20 PM59.0 °F53.6 °F82 %29.68 in6.2 miNW (310°)4.6 mphMostly Cloudy
7:50 PM59.0 °F55.4 °F88 %29.68 in6.2 miNW (320°)8.1 mphMostly Cloudy
8:20 PM57.2 °F53.6 °F88 %29.68 in5.0 miNNW (330°)3.5 mphMostly Cloudy
8:50 PM57.2 °F53.6 °F88 %29.68 in5.0 miNNW (330°)5.8 mphMostly Cloudy
9:00 PM58.0 °F54.0 °F83 %29.71 in5.0 miNNW (330°)5.8 mphMist
9:20 PM55.4 °F51.8 °F88 %29.71 in5.0 miCalmMostly Cloudy
9:50 PM53.6 °F51.8 °F94 %29.71 in4.3 miVariable3.5 mphPartly Cloudy
10:20 PM51.8 °F50.0 °F94 %29.71 in3.1 miCalmScattered Clouds
10:50 PM51.8 °F50.0 °F94 %29.74 in2.5 miCalmScattered Clouds
11:20 PM51.8 °F50.0 °F94 %29.74 in1.9 miCalmFogFog
11:50 PM50.0 °F48.2 °F94 %29.74 in0.2 miVariable3.5 mphFogFog
Hourly data recorded from LGTS, located miles away from Thessaloniki, Greece







STORIES FROM OUR PARTNERS